Ord, NE

1:31 AM CST on January 22, 2017 (GMT -0600)
Sharp

Weather History for KODX - August, 2014

Change the Weather History Date:

Tuesday, August 5, 2014

  Actual Average Record
Temperature  
Mean Temperature 77 °F 74 °F  
Max Temperature 87 °F 87 °F 100 °F (2006)
Min Temperature 67 °F 62 °F 51 °F (2012)
Degree Days  
Heating Degree Days 0 0  
Month to date heating degree days 0 0  
Since 1 June heating degree days 51 42  
Since 1 July heating degree days 19 5  
Cooling Degree Days 12 10  
Month to date cooling degree days 45 50  
Year to date cooling degree days 445 550  
Since 1 June cooling degree days 376 509  
Growing Degree Days 26 (Base 50)    
Moisture  
Dew Point 67 °F    
Average Humidity 72    
Maximum Humidity 93    
Minimum Humidity 51    
Precipitation  
Precipitation 0.03 in 0.10 in 5.76 in (1981)
Month to date precipitation 0.07 0.48  
Year to date precipitation 12.44 16.23  
Sea Level Pressure  
Sea Level Pressure 29.99 in    
Wind  
Wind Speed 11 mph (ESE)    
Max Wind Speed 21 mph    
Max Gust Speed 27 mph    
Visibility 8 miles    
Events Rain , Thunderstorm    
T = Trace of Precipitation, MM = Missing Value Source: NWS Daily Summary

Daily Weather History Graph

Daily Weather History Graph

Search for Another Location

Airport or City:

Trip Planner

Search our weather history database for the weather conditions in past years. The results will help you decide how hot, cold, wet, or windy it might be!

Date:

Astronomy

Aug. 05, 2014 Rise Set
Actual Time 6:34 AM CDT 8:48 PM CDT
Civil Twilight 6:03 AM CDT 9:19 PM CDT
Nautical Twilight 5:25 AM CDT 9:57 PM CDT
Astronomical Twilight 4:43 AM CDT 10:39 PM CDT
Moon 4:05 PM CDT (8/5) 1:23 AM CDT (8/5)
Length of Visible Light 15h 16m
Length of Day
14h 14m
Waxing Gibbous, 68% of the Moon is Illuminated
Aug 5
Waxing Gibbous
Aug 10
Full
Aug 17
Last Quarter
Aug 25
New
Sep 2
First Quarter

Hourly Weather History & Observations

Time (CDT) Temp. Heat Index Dew Point Humidity Pressure Visibility Wind Dir Wind Speed Gust Speed Precip Events Conditions
12:53 AM 69.1 °F - 66.0 °F 90% 30.00 in 9.0 mi SE 8.1 mph - N/A   Clear
1:53 AM 69.1 °F - 66.0 °F 90% 30.01 in 8.0 mi ESE 4.6 mph - N/A   Clear
2:51 AM 68.0 °F - 66.2 °F 94% 30.03 in 7.0 mi ESE 4.6 mph - N/A   Mostly Cloudy
2:52 AM 68.0 °F - 66.0 °F 93% 30.00 in 7.0 mi ESE 4.6 mph - N/A   Mostly Cloudy
3:07 AM 68.0 °F - 66.0 °F 93% 30.03 in 6.0 mi ESE 4.6 mph - N/A   Overcast
3:24 AM 68.0 °F - 66.0 °F 93% 30.03 in 6.0 mi East 5.8 mph - N/A   Overcast
3:32 AM 68.0 °F - 66.0 °F 93% 30.03 in 6.0 mi East 5.8 mph - N/A   Overcast
3:53 AM 68.0 °F - 66.0 °F 93% 30.00 in 6.0 mi ESE 5.8 mph - N/A   Overcast
4:53 AM 69.1 °F - 66.9 °F 93% 29.99 in 5.0 mi East 9.2 mph - N/A   Overcast
5:53 AM 68.0 °F - 66.9 °F 96% 30.01 in 5.0 mi East 9.2 mph - N/A   Overcast
6:53 AM 69.1 °F - 66.9 °F 93% 30.04 in 4.0 mi East 8.1 mph - N/A   Overcast
7:53 AM 69.1 °F - 66.9 °F 93% 30.04 in 4.0 mi ESE 11.5 mph - N/A   Overcast
8:44 AM 70.0 °F - 66.9 °F 90% 30.07 in 6.0 mi ESE 15.0 mph 20.7 mph N/A   Scattered Clouds
8:53 AM 71.1 °F - 66.9 °F 87% 30.04 in 7.0 mi ESE 11.5 mph - N/A   Partly Cloudy
9:53 AM 73.9 °F - 66.9 °F 79% 30.03 in 10.0 mi ESE 16.1 mph - 0.00 in Rain Light Rain
10:53 AM 75.9 °F - 66.0 °F 71% 30.02 in 10.0 mi ESE 17.3 mph - 0.00 in Rain Light Rain
11:53 AM 80.1 °F 82.1 °F 66.0 °F 62% 30.00 in 10.0 mi ESE 15.0 mph - 0.00 in Rain Light Rain
12:53 PM 84.0 °F 86.3 °F 66.0 °F 55% 29.98 in 10.0 mi ESE 15.0 mph 20.7 mph 0.00 in Rain Light Rain
1:53 PM 84.9 °F 86.1 °F 64.0 °F 49% 29.97 in 10.0 mi ESE 18.4 mph 24.2 mph 0.00 in Rain Light Rain
2:53 PM 84.9 °F 86.1 °F 64.0 °F 49% 29.96 in 10.0 mi SE 17.3 mph 24.2 mph 0.00 in   Mostly Cloudy
3:53 PM 79.0 °F - 66.9 °F 66% 29.96 in 6.0 mi ESE 9.2 mph - 0.02 in Rain , Thunderstorm Rain
4:53 PM 79.0 °F - 69.1 °F 72% 29.96 in 10.0 mi East 9.2 mph - 0.01 in   Mostly Cloudy
5:53 PM 81.0 °F 84.4 °F 70.0 °F 69% 29.94 in 10.0 mi East 8.1 mph - 0.00 in   Clear
6:53 PM 80.1 °F 82.9 °F 69.1 °F 69% 29.93 in 10.0 mi East 12.7 mph - N/A   Partly Cloudy
7:53 PM 77.0 °F - 68.0 °F 74% 29.93 in 10.0 mi East 13.8 mph 19.6 mph N/A   Mostly Cloudy
8:53 PM 75.0 °F - 66.9 °F 76% 29.93 in 10.0 mi East 11.5 mph - N/A   Clear
9:53 PM 73.0 °F - 66.9 °F 81% 29.97 in 10.0 mi East 5.8 mph - N/A   Scattered Clouds
10:53 PM 72.0 °F - 66.9 °F 84% 29.95 in 10.0 mi ESE 10.4 mph - N/A   Clear
11:53 PM 71.1 °F - 68.0 °F 90% 29.95 in 10.0 mi SE 5.8 mph - N/A   Partly Cloudy